Regional Weather Roundup
Issued by NWS

Home | Current Version | Previous Version | Text Only | Print | Product List | Glossary Off
Versions: 1 2 3 4 5 6 7 8 9 10 11 12 13 14 15 16 17 18 19 20 21 22 23 24 25 26 27 28 29 30 31 32 33 34 35 36 37 38 39 40 41 42 43 44 45 46 47 48 49 50

000
ASUS43 KDTX 250510
RWRMI
MICHIGAN HOURLY REGIONAL WEATHER ROUNDUP
NATIONAL WEATHER SERVICE DETROIT/PONTIAC MI
1200 AM EST SUN JAN 25 2015

NOTE: "FAIR" INDICATES FEW OR NO CLOUDS BELOW 12,000 FEET WITH NO
SIGNIFICANT WEATHER AND/OR OBSTRUCTION TO VISIBILITY.

MIZ047>049-052>055-059>063-066>070-074>076-081>083-250600-
SOUTHEAST LOWER MICHIGAN

CITY           SKY/WX    TMP DP  RH WIND       PRES   REMARKS
ADRIAN         CLOUDY    34  31  88 W5        29.69S
ALMA           CLOUDY    33  28  84 N7        29.68R
ANN ARBOR      CLOUDY    34  33  96 W5        29.67S FOG
BAD AXE        CLOUDY    27  22  83 N10G16    29.68R
DETROIT CITY   CLOUDY    37  31  78 W8        29.67R
DETROIT        CLOUDY    34  32  92 SW7       29.68R
FLINT          CLOUDY    36  32  85 W7        29.67R
GROSSE ILE     CLOUDY    36  32  87 SW5       29.67R
HILLSDALE      CLOUDY    36  33  89 SW3       29.67R
HOWELL         CLOUDY    33  32  97 W5        29.65S FOG

CITY           SKY/WX    TMP DP  RH WIND       PRES   REMARKS
JACKSON        CLOUDY    34  31  88 SW5       29.66S
LAMBERTVILLE   CLOUDY    36  32  87 CALM      29.69S
LANSING        CLOUDY    34  32  92 W6        29.67R FOG
LAPEER         NOT AVBL
MASON          CLOUDY    32  32  97 CALM      29.67R FOG
MONROE         MIX PCPN  34  32  93 W6        29.67S
MT. CLEMENS    CLOUDY    35  32  90 W5        29.65R
PONTIAC        CLOUDY    34  31  88 W6          N/A
PORT HOPE        N/A     28  19  69 NW8       29.67R
PORT HURON     CLOUDY    34  32  93 CALM      29.66R
TRI CITIES     CLOUDY    35  27  72 N9        29.68R
YPSILANTI      CLOUDY    37  32  82 SW5       29.68R
$$
MIZ043>046-050>051-056>058-064>065-071>073-077>080-250600-
SOUTHWEST LOWER MICHIGAN

CITY           SKY/WX    TMP DP  RH WIND       PRES   REMARKS
BATTLE CREEK   CLOUDY    36  31  82 SW6       29.68R
BENTON HARBOR  CLOUDY    35  33  92 CALM      29.69R FOG
BIG RAPIDS     CLOUDY    30  27  90 N10       29.68R FOG
COLDWATER      CLOUDY    35  32  90 SW6       29.67S
HOLLAND        CLOUDY    38  33  82 NW3       29.68S
GRAND RAPIDS   LGT SNOW  34  32  92 CALM      29.67S FOG
KALAMAZOO      CLOUDY    36  30  79 SW3       29.68R
MARSHALL       CLOUDY    34  31  90 SW3       29.67R
MUSKEGON       CLOUDY    36  33  89 CALM      29.68R FOG
$$
MIZ016>042-250600-
NORTHERN LOWER MICHIGAN

CITY           SKY/WX    TMP DP  RH WIND       PRES   REMARKS
ALPENA         PTCLDY    19   9  65 N12       29.73R
BEAVER ISLAND  CLOUDY    18  11  75 CALM      29.78R
BELLAIRE       CLOUDY    19  12  73 CALM      29.77R
CADILLAC       CLOUDY    20  15  79 N9        29.68R
CHARLEVOIX     MOCLDY    19  13  78 N13       29.79R
FRANKFORT      CLOUDY    24  18  78 CALM      29.75R
GAYLORD        CLOUDY    16  11  80 VRB5      29.70R
GRAYLING       CLOUDY    21  14  76 N6        29.71R
HARBOR SPRINGS CLEAR     16  10  75 N7        29.75R
HOUGHTON LAKE  CLOUDY    22  14  71 N3        29.70R
MANISTEE       CLOUDY    25  16  68 NE7       29.75R
OSCODA         CLOUDY    23  15  70 N10       29.70R
PELLSTON       CLEAR     13   7  77 N5        29.77R
TRAVERSE CITY  CLOUDY    23  14  68 NE12G21   29.74R
$$
MIZ007>008-015-250600-
EASTERN UPPER MICHIGAN

CITY           SKY/WX    TMP DP  RH WIND       PRES   REMARKS
KINROSS        CLEAR      7   3  85 N6        29.76R
MACKINAC ISLAN CLEAR     13   6  76 N14       29.75R WCI  -3
S. S. MARIE    PTCLDY     8  -1  66 N10       29.77R WCI  -6
$$
MIZ004>006-011>014-085-250600-
CENTRAL UPPER MICHIGAN

CITY           SKY/WX    TMP DP  RH WIND       PRES   REMARKS
MANISTIQUE     CLOUDY    18  13  79 N9        29.78R
ESCANABA       CLOUDY   N/A N/A N/A MISG        N/A
MENOMINEE      CLOUDY    21  12  68 NE14      29.78R
SAWYER-GWINN   LGT SNOW  18  14  84 NE12      29.76R
$$
MIZ001>003-009>011-084-250600-
WESTERN UPPER MICHIGAN

CITY           SKY/WX    TMP DP  RH WIND       PRES   REMARKS
IRON MOUNTAIN  CLOUDY    18   9  68 N7        29.77R
HOUGHTON       LGT SNOW  16  10  77 NE8       29.83R
COPPER HARBOR    N/A     17   7  64 E8G18     29.87R
IRONWOOD       CLOUDY    16   9  73 NE8       29.79R
$$

ABBREVIATIONS USED IN REMARKS
   TC - TEMPERATURE IN CELSIUS
  WCI - WIND CHILL INDEX
   HX - HEAT INDEX
  VSB - VISIBILITY




USA.gov is the U.S. government's official web portal to all federal, state and local government web resources and services.